Wetterdaten: Mittwoch, 07.12.2022
Datum Zeit Temp. I. Temp. A. Boden 5 cm Feuchte I. Feuchte A. Luftdruck Regen Wind
07.12.2022 00:26 23,0 C 2,9 C -5,0 C 44 % 86 % 1008 hPa 0,0 l/m 7,4 km/h (2 Bft)
07.12.2022 00:29 23,0 C 2,9 C -4,9 C 44 % 86 % 1009 hPa 0,0 l/m 5,9 km/h (2 Bft)
07.12.2022 00:32 23,0 C 2,9 C -4,9 C 44 % 86 % 1009 hPa 0,0 l/m 5,9 km/h (2 Bft)
07.12.2022 00:35 23,0 C 2,9 C -4,9 C 44 % 86 % 1009 hPa 0,0 l/m 7,4 km/h (2 Bft)
07.12.2022 00:38 23,0 C 2,9 C -5,0 C 44 % 86 % 1009 hPa 0,0 l/m 7,4 km/h (2 Bft)
07.12.2022 00:41 23,0 C 2,8 C -5,0 C 44 % 86 % 1009 hPa 0,0 l/m 8,9 km/h (2 Bft)
07.12.2022 00:44 23,0 C 2,9 C -5,0 C 44 % 86 % 1008 hPa 0,0 l/m 8,5 km/h (2 Bft)
07.12.2022 00:47 23,0 C 2,9 C -4,9 C 44 % 86 % 1008 hPa 0,0 l/m 7,6 km/h (2 Bft)
07.12.2022 00:50 23,0 C 2,8 C -4,9 C 44 % 85 % 1008 hPa 0,0 l/m 6,0 km/h (2 Bft)
07.12.2022 00:53 23,0 C 2,8 C -5,0 C 44 % 85 % 1009 hPa 0,0 l/m 6,5 km/h (2 Bft)
07.12.2022 00:56 23,0 C 2,8 C -4,9 C 44 % 85 % 1009 hPa 0,0 l/m 8,5 km/h (2 Bft)
07.12.2022 00:59 23,0 C 2,8 C -4,9 C 44 % 85 % 1009 hPa 0,0 l/m 6,7 km/h (2 Bft)
07.12.2022 01:02 23,0 C 2,8 C -4,9 C 44 % 85 % 1009 hPa 0,0 l/m 7,4 km/h (2 Bft)
07.12.2022 01:05 23,0 C 2,8 C -5,0 C 44 % 86 % 1009 hPa 0,0 l/m 5,7 km/h (1 Bft)
07.12.2022 01:08 23,0 C 2,8 C -5,0 C 44 % 86 % 1009 hPa 0,0 l/m 7,0 km/h (2 Bft)
07.12.2022 01:11 23,0 C 2,7 C -4,8 C 44 % 86 % 1009 hPa 0,0 l/m 6,4 km/h (2 Bft)
07.12.2022 01:14 23,0 C 2,7 C -4,9 C 44 % 86 % 1009 hPa 0,0 l/m 6,9 km/h (2 Bft)
07.12.2022 01:17 23,0 C 2,7 C -4,8 C 44 % 86 % 1009 hPa 0,0 l/m 6,3 km/h (2 Bft)
07.12.2022 01:20 23,0 C 2,7 C -4,8 C 44 % 86 % 1008 hPa 0,0 l/m 8,1 km/h (2 Bft)
07.12.2022 01:23 23,0 C 2,7 C -4,9 C 44 % 86 % 1009 hPa 0,0 l/m 5,9 km/h (2 Bft)
07.12.2022 01:26 23,0 C 2,7 C -4,9 C 44 % 86 % 1009 hPa 0,0 l/m 8,1 km/h (2 Bft)
07.12.2022 01:29 23,0 C 2,7 C -4,9 C 44 % 86 % 1009 hPa 0,0 l/m 6,4 km/h (2 Bft)
07.12.2022 01:32 23,0 C 2,7 C -4,9 C 44 % 86 % 1009 hPa 0,0 l/m 7,6 km/h (2 Bft)
07.12.2022 01:35 23,0 C 2,7 C -4,9 C 44 % 86 % 1009 hPa 0,0 l/m 8,1 km/h (2 Bft)
07.12.2022 01:38 23,0 C 2,7 C -4,9 C 44 % 85 % 1009 hPa 0,0 l/m 7,2 km/h (2 Bft)
07.12.2022 01:41 23,0 C 2,7 C -4,7 C 44 % 86 % 1008 hPa 0,0 l/m 7,2 km/h (2 Bft)
07.12.2022 01:44 23,0 C 2,6 C -4,8 C 44 % 86 % 1008 hPa 0,0 l/m 6,0 km/h (2 Bft)
07.12.2022 01:47 23,0 C 2,6 C -4,8 C 44 % 86 % 1008 hPa 0,0 l/m 3,9 km/h (1 Bft)
07.12.2022 01:50 23,0 C 2,6 C -4,7 C 44 % 86 % 1008 hPa 0,0 l/m 1,3 km/h (1 Bft)
07.12.2022 01:53 23,0 C 2,6 C -4,6 C 44 % 86 % 1008 hPa 0,0 l/m 1,6 km/h (1 Bft)
07.12.2022 01:56 23,0 C 2,5 C -4,8 C 44 % 86 % 1008 hPa 0,0 l/m 1,4 km/h (1 Bft)
07.12.2022 01:59 23,0 C 2,5 C -4,8 C 44 % 86 % 1008 hPa 0,0 l/m 1,9 km/h (1 Bft)
07.12.2022 02:02 23,0 C 2,5 C -4,8 C 44 % 86 % 1008 hPa 0,0 l/m 4,1 km/h (1 Bft)
07.12.2022 02:05 23,0 C 2,5 C -4,8 C 44 % 86 % 1008 hPa 0,0 l/m 1,7 km/h (1 Bft)
07.12.2022 02:08 23,0 C 2,5 C -4,8 C 44 % 86 % 1008 hPa 0,0 l/m 4,3 km/h (1 Bft)
07.12.2022 02:11 23,0 C 2,5 C -4,8 C 44 % 86 % 1008 hPa 0,0 l/m 6,1 km/h (2 Bft)
07.12.2022 02:14 22,9 C 2,5 C -4,9 C 44 % 86 % 1008 hPa 0,0 l/m 6,1 km/h (2 Bft)
07.12.2022 02:17 23,0 C 2,5 C -4,9 C 44 % 86 % 1008 hPa 0,0 l/m 4,6 km/h (1 Bft)
07.12.2022 02:20 23,0 C 2,5 C -4,9 C 44 % 86 % 1008 hPa 0,0 l/m 5,5 km/h (1 Bft)
07.12.2022 02:23 23,0 C 2,5 C -4,8 C 44 % 86 % 1008 hPa 0,0 l/m 5,2 km/h (1 Bft)
07.12.2022 02:26 23,0 C 2,5 C -4,8 C 44 % 86 % 1008 hPa 0,0 l/m 5,0 km/h (1 Bft)
07.12.2022 02:29 23,0 C 2,5 C -4,9 C 44 % 86 % 1008 hPa 0,0 l/m 6,4 km/h (2 Bft)
07.12.2022 02:32 23,0 C 2,5 C -4,9 C 44 % 86 % 1008 hPa 0,0 l/m 5,0 km/h (1 Bft)
07.12.2022 02:35 23,0 C 2,5 C -4,8 C 44 % 86 % 1008 hPa 0,0 l/m 6,9 km/h (2 Bft)
07.12.2022 02:38 23,0 C 2,5 C -4,9 C 44 % 86 % 1008 hPa 0,0 l/m 2,9 km/h (1 Bft)
07.12.2022 02:41 23,0 C 2,5 C -4,8 C 44 % 86 % 1008 hPa 0,0 l/m 4,8 km/h (1 Bft)
07.12.2022 02:44 23,0 C 2,5 C -4,8 C 44 % 86 % 1008 hPa 0,0 l/m 5,4 km/h (1 Bft)
07.12.2022 02:47 23,0 C 2,5 C -4,8 C 44 % 86 % 1008 hPa 0,0 l/m 3,6 km/h (1 Bft)
07.12.2022 02:50 23,0 C 2,5 C -4,8 C 44 % 86 % 1008 hPa 0,0 l/m 5,0 km/h (1 Bft)
07.12.2022 02:53 23,0 C 2,5 C -4,8 C 44 % 86 % 1008 hPa 0,0 l/m 4,0 km/h (1 Bft)
07.12.2022 02:56 23,0 C 2,5 C -4,8 C 44 % 86 % 1008 hPa 0,0 l/m 5,0 km/h (1 Bft)
07.12.2022 02:59 23,0 C 2,4 C -4,6 C 44 % 86 % 1008 hPa 0,0 l/m 3,4 km/h (1 Bft)
07.12.2022 03:02 23,0 C 2,5 C -4,7 C 44 % 86 % 1008 hPa 0,0 l/m 5,1 km/h (1 Bft)
07.12.2022 03:05 23,0 C 2,5 C -4,6 C 44 % 86 % 1008 hPa 0,0 l/m 4,2 km/h (1 Bft)
07.12.2022 03:08 23,0 C 2,5 C -4,7 C 44 % 86 % 1008 hPa 0,0 l/m 3,1 km/h (1 Bft)
07.12.2022 03:11 22,9 C 2,5 C -4,8 C 44 % 86 % 1008 hPa 0,0 l/m 3,6 km/h (1 Bft)
07.12.2022 03:14 23,0 C 2,4 C -4,7 C 44 % 86 % 1008 hPa 0,0 l/m 6,5 km/h (2 Bft)
07.12.2022 03:17 22,9 C 2,4 C -4,8 C 44 % 86 % 1008 hPa 0,0 l/m 6,0 km/h (2 Bft)
07.12.2022 03:20 23,0 C 2,4 C -5,0 C 44 % 86 % 1008 hPa 0,0 l/m 7,2 km/h (2 Bft)
07.12.2022 03:23 22,9 C 2,5 C -4,9 C 44 % 86 % 1008 hPa 0,0 l/m 6,7 km/h (2 Bft)
07.12.2022 03:26 22,9 C 2,5 C -5,0 C 44 % 86 % 1008 hPa 0,0 l/m 8,2 km/h (2 Bft)
07.12.2022 03:29 22,9 C 2,5 C -5,0 C 44 % 86 % 1008 hPa 0,0 l/m 5,9 km/h (2 Bft)
07.12.2022 03:32 22,9 C 2,5 C -4,8 C 44 % 86 % 1008 hPa 0,0 l/m 5,5 km/h (1 Bft)
07.12.2022 03:35 22,9 C 2,4 C -5,1 C 44 % 86 % 1008 hPa 0,0 l/m 9,6 km/h (2 Bft)
07.12.2022 03:38 23,0 C 2,5 C -5,0 C 44 % 86 % 1008 hPa 0,0 l/m 12,3 km/h (3 Bft)
07.12.2022 03:41 22,9 C 2,5 C -5,0 C 44 % 85 % 1008 hPa 0,0 l/m 8,0 km/h (2 Bft)
07.12.2022 03:44 22,9 C 2,4 C -4,9 C 44 % 85 % 1008 hPa 0,0 l/m 12,0 km/h (2 Bft)
07.12.2022 03:47 22,9 C 2,4 C -4,9 C 44 % 85 % 1008 hPa 0,0 l/m 9,0 km/h (2 Bft)
07.12.2022 03:49 22,9 C 2,4 C -5,0 C 44 % 86 % 1008 hPa 0,0 l/m 9,0 km/h (2 Bft)
07.12.2022 03:52 22,9 C 2,4 C -5,0 C 44 % 85 % 1008 hPa 0,0 l/m 7,8 km/h (2 Bft)
07.12.2022 03:55 23,0 C 2,4 C -5,0 C 44 % 85 % 1008 hPa 0,0 l/m 6,3 km/h (2 Bft)
07.12.2022 03:58 23,0 C 2,4 C -5,0 C 44 % 86 % 1008 hPa 0,0 l/m 9,4 km/h (2 Bft)
07.12.2022 04:01 22,9 C 2,4 C -4,8 C 44 % 86 % 1008 hPa 0,0 l/m 8,5 km/h (2 Bft)
07.12.2022 04:04 23,0 C 2,3 C -5,0 C 44 % 85 % 1008 hPa 0,0 l/m 7,6 km/h (2 Bft)
07.12.2022 04:07 23,0 C 2,3 C -5,0 C 44 % 85 % 1008 hPa 0,0 l/m 7,6 km/h (2 Bft)
07.12.2022 04:10 23,0 C 2,3 C -5,0 C 44 % 85 % 1008 hPa 0,0 l/m 7,2 km/h (2 Bft)
07.12.2022 04:13 23,0 C 2,3 C -5,1 C 44 % 85 % 1008 hPa 0,0 l/m 9,8 km/h (2 Bft)
07.12.2022 04:16 22,9 C 2,3 C -5,0 C 44 % 85 % 1008 hPa 0,0 l/m 7,6 km/h (2 Bft)
07.12.2022 04:19 22,9 C 2,3 C -5,0 C 44 % 85 % 1008 hPa 0,0 l/m 6,3 km/h (2 Bft)
07.12.2022 04:22 23,0 C 2,3 C -5,0 C 44 % 85 % 1008 hPa 0,0 l/m 7,9 km/h (2 Bft)
07.12.2022 04:25 23,0 C 2,3 C -5,0 C 44 % 85 % 1008 hPa 0,0 l/m 8,7 km/h (2 Bft)
07.12.2022 04:28 23,0 C 2,3 C -4,9 C 44 % 85 % 1008 hPa 0,0 l/m 9,8 km/h (2 Bft)
07.12.2022 04:31 23,0 C 2,3 C -4,9 C 44 % 85 % 1008 hPa 0,0 l/m 13,7 km/h (3 Bft)
07.12.2022 04:34 23,0 C 2,3 C -4,9 C 44 % 85 % 1008 hPa 0,0 l/m 9,5 km/h (2 Bft)
07.12.2022 04:37 22,9 C 2,3 C -4,9 C 44 % 85 % 1008 hPa 0,0 l/m 9,9 km/h (2 Bft)
07.12.2022 04:40 22,9 C 2,3 C -5,0 C 44 % 85 % 1008 hPa 0,0 l/m 9,8 km/h (2 Bft)
07.12.2022 04:43 22,9 C 2,3 C -5,1 C 44 % 85 % 1008 hPa 0,0 l/m 7,9 km/h (2 Bft)
07.12.2022 04:46 22,9 C 2,3 C -5,0 C 44 % 85 % 1008 hPa 0,0 l/m 13,5 km/h (3 Bft)
07.12.2022 04:50 23,0 C 2,3 C -5,0 C 44 % 85 % 1008 hPa 0,0 l/m 10,8 km/h (2 Bft)
07.12.2022 04:53 22,9 C 2,3 C -5,1 C 44 % 85 % 1008 hPa 0,0 l/m 7,5 km/h (2 Bft)
07.12.2022 04:56 22,9 C 2,3 C -5,1 C 44 % 85 % 1008 hPa 0,0 l/m 11,3 km/h (2 Bft)
07.12.2022 04:59 22,9 C 2,3 C -5,0 C 44 % 85 % 1008 hPa 0,0 l/m 12,5 km/h (3 Bft)
07.12.2022 05:02 22,9 C 2,3 C -5,1 C 44 % 85 % 1008 hPa 0,0 l/m 12,5 km/h (3 Bft)
07.12.2022 05:05 22,9 C 2,3 C -5,1 C 44 % 85 % 1008 hPa 0,0 l/m 11,3 km/h (2 Bft)
07.12.2022 05:08 22,9 C 2,3 C -5,1 C 44 % 85 % 1008 hPa 0,0 l/m 12,3 km/h (3 Bft)
07.12.2022 05:11 22,9 C 2,3 C -5,1 C 44 % 85 % 1008 hPa 0,0 l/m 9,4 km/h (2 Bft)
07.12.2022 05:14 23,0 C 2,3 C -5,2 C 44 % 85 % 1008 hPa 0,0 l/m 12,6 km/h (3 Bft)
07.12.2022 05:17 23,0 C 2,3 C -5,2 C 44 % 85 % 1008 hPa 0,0 l/m 8,6 km/h (2 Bft)
07.12.2022 05:20 22,9 C 2,3 C -5,1 C 44 % 85 % 1008 hPa 0,0 l/m 8,2 km/h (2 Bft)
07.12.2022 05:23 22,9 C 2,3 C -5,2 C 44 % 85 % 1008 hPa 0,0 l/m 7,6 km/h (2 Bft)
07.12.2022 05:26 23,0 C 2,2 C -5,2 C 44 % 85 % 1008 hPa 0,0 l/m 8,5 km/h (2 Bft)
07.12.2022 05:29 22,9 C 2,3 C -5,2 C 44 % 85 % 1008 hPa 0,0 l/m 8,5 km/h (2 Bft)
07.12.2022 05:32 22,9 C 2,3 C -5,1 C 44 % 85 % 1008 hPa 0,0 l/m 8,5 km/h (2 Bft)
07.12.2022 05:35 22,9 C 2,2 C -5,3 C 44 % 85 % 1008 hPa 0,0 l/m 8,5 km/h (2 Bft)
07.12.2022 05:38 22,9 C 2,2 C -5,2 C 44 % 85 % 1008 hPa 0,0 l/m 7,7 km/h (2 Bft)
07.12.2022 05:41 22,9 C 2,3 C -5,2 C 44 % 85 % 1008 hPa 0,0 l/m 7,4 km/h (2 Bft)
07.12.2022 05:44 22,9 C 2,3 C -5,3 C 44 % 85 % 1008 hPa 0,0 l/m 8,1 km/h (2 Bft)
07.12.2022 05:47 22,9 C 2,2 C -5,2 C 44 % 85 % 1008 hPa 0,0 l/m 8,1 km/h (2 Bft)
07.12.2022 05:50 22,9 C 2,2 C -5,2 C 44 % 85 % 1008 hPa 0,0 l/m 8,1 km/h (2 Bft)
07.12.2022 05:53 22,9 C 2,2 C -5,3 C 44 % 85 % 1008 hPa 0,0 l/m 6,9 km/h (2 Bft)
07.12.2022 05:56 22,9 C 2,2 C -5,2 C 44 % 85 % 1008 hPa 0,0 l/m 6,5 km/h (2 Bft)
07.12.2022 05:59 22,9 C 2,2 C -5,2 C 44 % 85 % 1008 hPa 0,0 l/m 3,1 km/h (1 Bft)
07.12.2022 06:02 22,9 C 2,2 C -5,2 C 44 % 85 % 1008 hPa 0,0 l/m 0,1 km/h (0 Bft)
07.12.2022 06:05 22,9 C 2,2 C -5,1 C 44 % 85 % 1008 hPa 0,0 l/m 0,9 km/h (0 Bft)
07.12.2022 06:08 22,9 C 2,1 C -5,0 C 44 % 85 % 1008 hPa 0,0 l/m 3,0 km/h (1 Bft)
07.12.2022 06:11 22,9 C 2,1 C -5,1 C 44 % 85 % 1008 hPa 0,0 l/m 2,7 km/h (1 Bft)
07.12.2022 06:14 22,9 C 2,1 C -5,1 C 44 % 85 % 1008 hPa 0,0 l/m 4,7 km/h (1 Bft)
07.12.2022 06:17 22,9 C 2,1 C -5,1 C 44 % 86 % 1008 hPa 0,0 l/m 4,5 km/h (1 Bft)
07.12.2022 06:20 22,9 C 2,1 C -5,1 C 44 % 86 % 1008 hPa 0,0 l/m 5,1 km/h (1 Bft)
07.12.2022 06:23 22,9 C 2,1 C -5,1 C 44 % 86 % 1008 hPa 0,0 l/m 3,7 km/h (1 Bft)
07.12.2022 06:26 22,9 C 2,1 C -5,0 C 44 % 86 % 1008 hPa 0,0 l/m 4,8 km/h (1 Bft)
07.12.2022 06:29 22,9 C 2,1 C -5,0 C 44 % 86 % 1008 hPa 0,0 l/m 6,5 km/h (2 Bft)
07.12.2022 06:32 22,9 C 2,1 C -5,0 C 44 % 86 % 1008 hPa 0,0 l/m 0,8 km/h (0 Bft)
07.12.2022 06:35 22,9 C 2,0 C -5,0 C 44 % 86 % 1008 hPa 0,0 l/m 4,5 km/h (1 Bft)
07.12.2022 06:38 22,9 C 2,1 C -5,2 C 44 % 86 % 1008 hPa 0,0 l/m 5,6 km/h (1 Bft)
07.12.2022 06:41 22,9 C 2,1 C -5,1 C 44 % 85 % 1008 hPa 0,0 l/m 5,6 km/h (1 Bft)
07.12.2022 06:44 22,9 C 2,1 C -5,1 C 44 % 85 % 1008 hPa 0,0 l/m 5,7 km/h (1 Bft)
07.12.2022 06:47 22,9 C 2,1 C -5,2 C 44 % 85 % 1008 hPa 0,0 l/m 5,9 km/h (2 Bft)
07.12.2022 06:50 22,9 C 2,0 C -5,3 C 44 % 85 % 1008 hPa 0,0 l/m 2,3 km/h (1 Bft)
07.12.2022 06:53 22,9 C 2,0 C -5,2 C 44 % 85 % 1008 hPa 0,0 l/m 3,1 km/h (1 Bft)
07.12.2022 06:56 22,9 C 2,0 C -5,2 C 44 % 85 % 1008 hPa 0,0 l/m 7,0 km/h (2 Bft)
07.12.2022 06:59 22,9 C 2,0 C -5,2 C 44 % 85 % 1008 hPa 0,0 l/m 6,3 km/h (2 Bft)
07.12.2022 07:02 22,9 C 2,0 C -5,3 C 44 % 85 % 1008 hPa 0,0 l/m 4,5 km/h (1 Bft)
07.12.2022 07:05 22,9 C 2,0 C -5,3 C 44 % 85 % 1008 hPa 0,0 l/m 6,5 km/h (2 Bft)
07.12.2022 07:08 22,9 C 2,0 C -5,3 C 44 % 85 % 1008 hPa 0,0 l/m 5,2 km/h (1 Bft)
07.12.2022 07:11 22,9 C 2,0 C -5,2 C 44 % 85 % 1008 hPa 0,0 l/m 6,2 km/h (2 Bft)
07.12.2022 07:14 22,9 C 2,0 C -5,2 C 44 % 85 % 1008 hPa 0,0 l/m 6,5 km/h (2 Bft)
07.12.2022 07:17 22,9 C 2,0 C -5,3 C 44 % 85 % 1008 hPa 0,0 l/m 3,2 km/h (1 Bft)
07.12.2022 07:20 22,9 C 2,0 C -5,3 C 44 % 85 % 1008 hPa 0,0 l/m 3,2 km/h (1 Bft)
07.12.2022 07:23 22,9 C 1,9 C -5,3 C 44 % 85 % 1008 hPa 0,0 l/m 7,6 km/h (2 Bft)
07.12.2022 07:26 22,9 C 2,0 C -5,4 C 44 % 85 % 1008 hPa 0,0 l/m 8,2 km/h (2 Bft)
07.12.2022 07:29 22,9 C 2,0 C -5,3 C 44 % 85 % 1008 hPa 0,0 l/m 12,8 km/h (3 Bft)
07.12.2022 07:32 22,9 C 2,0 C -5,3 C 44 % 85 % 1008 hPa 0,0 l/m 7,9 km/h (2 Bft)
07.12.2022 07:35 22,9 C 2,0 C -5,2 C 44 % 85 % 1008 hPa 0,0 l/m 8,4 km/h (2 Bft)
07.12.2022 07:38 22,9 C 2,0 C -5,3 C 44 % 85 % 1008 hPa 0,0 l/m 12,6 km/h (3 Bft)
07.12.2022 07:41 22,9 C 2,0 C -5,3 C 44 % 85 % 1008 hPa 0,0 l/m 8,5 km/h (2 Bft)
07.12.2022 07:44 22,9 C 2,0 C -5,3 C 44 % 85 % 1008 hPa 0,0 l/m 8,7 km/h (2 Bft)
07.12.2022 07:47 22,9 C 2,0 C -5,3 C 44 % 85 % 1008 hPa 0,0 l/m 8,7 km/h (2 Bft)
07.12.2022 07:50 22,9 C 2,0 C -5,2 C 44 % 85 % 1008 hPa 0,0 l/m 4,5 km/h (1 Bft)
07.12.2022 07:53 22,9 C 1,9 C -5,2 C 44 % 85 % 1008 hPa 0,0 l/m 6,3 km/h (2 Bft)
07.12.2022 07:56 22,9 C 1,9 C -5,3 C 44 % 85 % 1008 hPa 0,0 l/m 9,4 km/h (2 Bft)
07.12.2022 07:59 22,8 C 2,0 C -5,2 C 44 % 85 % 1008 hPa 0,0 l/m 11,6 km/h (2 Bft)
07.12.2022 08:02 22,9 C 1,9 C -5,2 C 44 % 85 % 1008 hPa 0,0 l/m 7,8 km/h (2 Bft)
07.12.2022 08:05 22,9 C 1,9 C -5,3 C 44 % 85 % 1008 hPa 0,0 l/m 8,3 km/h (2 Bft)
07.12.2022 08:08 22,9 C 1,9 C -5,3 C 44 % 85 % 1008 hPa 0,0 l/m 8,3 km/h (2 Bft)
07.12.2022 08:11 22,9 C 1,9 C -5,2 C 44 % 85 % 1008 hPa 0,0 l/m 6,8 km/h (2 Bft)
07.12.2022 08:14 22,9 C 1,9 C -5,3 C 44 % 85 % 1008 hPa 0,0 l/m 9,5 km/h (2 Bft)
07.12.2022 08:17 22,9 C 1,9 C -5,4 C 44 % 85 % 1009 hPa 0,0 l/m 10,5 km/h (2 Bft)
07.12.2022 08:20 22,9 C 1,9 C -5,3 C 44 % 85 % 1009 hPa 0,0 l/m 7,8 km/h (2 Bft)
07.12.2022 08:23 22,9 C 1,9 C -5,2 C 44 % 85 % 1009 hPa 0,0 l/m 4,2 km/h (1 Bft)
07.12.2022 08:26 22,9 C 1,9 C -5,2 C 44 % 85 % 1009 hPa 0,0 l/m 4,2 km/h (1 Bft)
07.12.2022 08:29 23,0 C 1,9 C -5,4 C 44 % 85 % 1009 hPa 0,0 l/m 9,2 km/h (2 Bft)
07.12.2022 08:32 22,9 C 1,9 C -5,3 C 44 % 85 % 1009 hPa 0,0 l/m 4,8 km/h (1 Bft)
07.12.2022 08:35 22,9 C 1,9 C -5,3 C 44 % 85 % 1009 hPa 0,0 l/m 7,9 km/h (2 Bft)
07.12.2022 08:38 22,9 C 1,9 C -5,3 C 44 % 85 % 1009 hPa 0,0 l/m 8,3 km/h (2 Bft)
07.12.2022 08:41 23,0 C 1,8 C -5,5 C 43 % 85 % 1009 hPa 0,0 l/m 6,8 km/h (2 Bft)
07.12.2022 08:44 23,0 C 1,8 C -5,4 C 43 % 85 % 1009 hPa 0,0 l/m 5,6 km/h (1 Bft)
07.12.2022 08:47 23,0 C 1,8 C -5,3 C 43 % 85 % 1009 hPa 0,0 l/m 6,4 km/h (2 Bft)
07.12.2022 08:50 22,9 C 1,7 C -5,2 C 43 % 85 % 1009 hPa 0,0 l/m 2,4 km/h (1 Bft)
07.12.2022 08:53 22,9 C 1,7 C -5,3 C 44 % 85 % 1009 hPa 0,0 l/m 1,2 km/h (1 Bft)
07.12.2022 08:56 22,9 C 1,5 C -5,2 C 44 % 85 % 1009 hPa 0,0 l/m 0,4 km/h (0 Bft)
07.12.2022 08:59 22,8 C 1,6 C -5,2 C 43 % 85 % 1009 hPa 0,0 l/m 0,6 km/h (0 Bft)
07.12.2022 09:02 22,9 C 1,5 C -5,2 C 43 % 85 % 1009 hPa 0,0 l/m 0,3 km/h (0 Bft)
07.12.2022 09:05 22,9 C 1,5 C -5,1 C 43 % 85 % 1009 hPa 0,0 l/m 0,3 km/h (0 Bft)
07.12.2022 09:08 22,9 C 1,5 C -5,2 C 44 % 85 % 1009 hPa 0,0 l/m 0,3 km/h (0 Bft)
07.12.2022 09:11 22,9 C 1,5 C -5,2 C 44 % 85 % 1009 hPa 0,0 l/m 5,4 km/h (1 Bft)
07.12.2022 09:14 22,9 C 1,5 C -5,1 C 43 % 86 % 1009 hPa 0,0 l/m 3,3 km/h (1 Bft)
07.12.2022 09:17 22,9 C 1,5 C -5,1 C 43 % 86 % 1009 hPa 0,0 l/m 0,4 km/h (0 Bft)
07.12.2022 09:20 22,9 C 1,4 C -5,1 C 43 % 86 % 1009 hPa 0,0 l/m 3,7 km/h (1 Bft)
07.12.2022 09:23 22,9 C 1,4 C -5,1 C 43 % 86 % 1009 hPa 0,0 l/m 1,6 km/h (1 Bft)
07.12.2022 09:26 22,9 C 1,5 C -5,0 C 43 % 86 % 1009 hPa 0,0 l/m 2,5 km/h (1 Bft)
07.12.2022 09:29 22,9 C 1,5 C -5,0 C 43 % 86 % 1009 hPa 0,0 l/m 2,5 km/h (1 Bft)
07.12.2022 09:32 22,9 C 1,5 C -5,0 C 43 % 86 % 1009 hPa 0,0 l/m 4,6 km/h (1 Bft)
07.12.2022 09:35 22,9 C 1,6 C -5,0 C 43 % 86 % 1009 hPa 0,0 l/m 4,3 km/h (1 Bft)
07.12.2022 09:38 22,9 C 1,8 C -5,0 C 43 % 86 % 1009 hPa 0,0 l/m 4,3 km/h (1 Bft)
07.12.2022 09:41 23,0 C 1,9 C -5,0 C 43 % 86 % 1009 hPa 0,0 l/m 4,3 km/h (1 Bft)
07.12.2022 09:44 23,0 C 2,1 C -5,0 C 43 % 85 % 1009 hPa 0,0 l/m 4,3 km/h (1 Bft)
07.12.2022 09:47 23,0 C 2,3 C -5,1 C 43 % 85 % 1009 hPa 0,0 l/m 8,5 km/h (2 Bft)
07.12.2022 09:50 23,0 C 2,5 C -5,0 C 43 % 86 % 1009 hPa 0,0 l/m 4,0 km/h (1 Bft)
07.12.2022 09:53 23,0 C 2,5 C -4,9 C 43 % 85 % 1009 hPa 0,0 l/m 4,0 km/h (1 Bft)
07.12.2022 09:56 23,0 C 2,5 C -5,1 C 43 % 85 % 1009 hPa 0,0 l/m 6,2 km/h (2 Bft)
07.12.2022 09:59 23,0 C 2,5 C -5,0 C 43 % 85 % 1009 hPa 0,0 l/m 5,7 km/h (1 Bft)
07.12.2022 10:02 23,0 C 2,6 C -5,1 C 43 % 85 % 1009 hPa 0,0 l/m 9,5 km/h (2 Bft)
07.12.2022 10:05 23,0 C 2,7 C -5,1 C 43 % 84 % 1009 hPa 0,0 l/m 10,1 km/h (2 Bft)
07.12.2022 10:08 23,0 C 2,7 C -5,2 C 43 % 84 % 1009 hPa 0,0 l/m 11,6 km/h (2 Bft)
07.12.2022 10:11 23,0 C 2,7 C -5,2 C 43 % 84 % 1009 hPa 0,0 l/m 13,5 km/h (3 Bft)
07.12.2022 10:14 23,0 C 2,8 C -5,2 C 43 % 84 % 1009 hPa 0,0 l/m 9,8 km/h (2 Bft)
07.12.2022 10:17 23,0 C 2,8 C -5,0 C 43 % 84 % 1009 hPa 0,0 l/m 12,1 km/h (2 Bft)
07.12.2022 10:20 23,0 C 3,0 C -5,1 C 43 % 83 % 1009 hPa 0,0 l/m 9,7 km/h (2 Bft)
07.12.2022 10:23 23,0 C 3,1 C -5,2 C 43 % 82 % 1009 hPa 0,0 l/m 12,6 km/h (3 Bft)
07.12.2022 10:26 23,0 C 3,1 C -5,2 C 43 % 82 % 1009 hPa 0,0 l/m 12,5 km/h (3 Bft)
07.12.2022 10:29 23,0 C 3,3 C -5,2 C 43 % 82 % 1009 hPa 0,0 l/m 16,6 km/h (3 Bft)
07.12.2022 10:32 23,0 C 3,4 C -5,1 C 43 % 81 % 1009 hPa 0,0 l/m 12,8 km/h (3 Bft)
07.12.2022 10:35 23,0 C 3,5 C -5,1 C 44 % 81 % 1009 hPa 0,0 l/m 11,6 km/h (2 Bft)
07.12.2022 10:38 23,0 C 3,6 C -5,2 C 43 % 80 % 1009 hPa 0,0 l/m 11,6 km/h (2 Bft)
07.12.2022 10:41 23,0 C 3,6 C -5,1 C 44 % 80 % 1009 hPa 0,0 l/m 14,1 km/h (3 Bft)
07.12.2022 10:44 23,1 C 3,7 C -5,1 C 44 % 80 % 1009 hPa 0,0 l/m 9,0 km/h (2 Bft)
07.12.2022 10:47 23,0 C 3,9 C -5,1 C 44 % 79 % 1009 hPa 0,0 l/m 12,5 km/h (3 Bft)
07.12.2022 10:50 23,1 C 3,7 C -5,0 C 44 % 79 % 1009 hPa 0,0 l/m 15,0 km/h (3 Bft)
07.12.2022 10:53 23,1 C 3,7 C -5,0 C 44 % 79 % 1009 hPa 0,0 l/m 13,8 km/h (3 Bft)
07.12.2022 10:56 23,0 C 3,6 C -5,1 C 44 % 79 % 1009 hPa 0,0 l/m 10,4 km/h (2 Bft)
07.12.2022 10:59 23,0 C 3,6 C -5,1 C 44 % 79 % 1009 hPa 0,0 l/m 12,8 km/h (3 Bft)
07.12.2022 11:02 23,1 C 3,7 C -5,1 C 44 % 78 % 1009 hPa 0,0 l/m 12,8 km/h (3 Bft)
07.12.2022 11:05 23,0 C 3,6 C -5,2 C 44 % 78 % 1009 hPa 0,0 l/m 15,3 km/h (3 Bft)
07.12.2022 11:08 23,0 C 3,5 C -5,2 C 44 % 78 % 1009 hPa 0,0 l/m 13,1 km/h (3 Bft)
07.12.2022 11:11 23,0 C 3,6 C -5,3 C 44 % 78 % 1009 hPa 0,0 l/m 9,9 km/h (2 Bft)
07.12.2022 11:14 23,1 C 3,9 C -5,2 C 44 % 78 % 1009 hPa 0,0 l/m 11,1 km/h (2 Bft)
07.12.2022 11:17 23,0 C 4,0 C -5,3 C 44 % 77 % 1009 hPa 0,0 l/m 9,0 km/h (2 Bft)
07.12.2022 11:20 23,0 C 4,1 C -5,3 C 44 % 74 % 1009 hPa 0,0 l/m 14,3 km/h (3 Bft)
07.12.2022 11:23 23,1 C 4,4 C -5,0 C 44 % 75 % 1009 hPa 0,0 l/m 13,1 km/h (3 Bft)
07.12.2022 11:26 23,1 C 4,5 C -5,2 C 44 % 74 % 1009 hPa 0,0 l/m 14,1 km/h (3 Bft)
07.12.2022 11:29 23,1 C 4,5 C -5,5 C 44 % 74 % 1009 hPa 0,0 l/m 10,2 km/h (2 Bft)
07.12.2022 11:32 23,1 C 4,2 C -5,4 C 44 % 74 % 1008 hPa 0,0 l/m 8,5 km/h (2 Bft)
07.12.2022 11:35 23,1 C 4,1 C -5,4 C 44 % 74 % 1008 hPa 0,0 l/m 4,9 km/h (1 Bft)
07.12.2022 11:38 23,1 C 4,1 C -5,5 C 44 % 74 % 1008 hPa 0,0 l/m 6,9 km/h (2 Bft)
07.12.2022 11:41 23,1 C 4,0 C -5,6 C 44 % 74 % 1008 hPa 0,0 l/m 9,1 km/h (2 Bft)
07.12.2022 11:44 23,1 C 3,9 C -5,5 C 44 % 74 % 1008 hPa 0,0 l/m 7,4 km/h (2 Bft)
07.12.2022 11:47 23,1 C 3,9 C -5,4 C 44 % 75 % 1008 hPa 0,0 l/m 7,0 km/h (2 Bft)
07.12.2022 11:50 23,1 C 4,0 C -5,4 C 44 % 74 % 1008 hPa 0,0 l/m 9,6 km/h (2 Bft)
07.12.2022 11:53 23,1 C 4,0 C -5,5 C 44 % 74 % 1008 hPa 0,0 l/m 9,5 km/h (2 Bft)
07.12.2022 11:56 23,1 C 3,9 C -5,4 C 44 % 74 % 1008 hPa 0,0 l/m 11,5 km/h (2 Bft)
07.12.2022 11:59 23,1 C 4,0 C -5,5 C 44 % 74 % 1008 hPa 0,0 l/m 10,3 km/h (2 Bft)
07.12.2022 12:02 23,0 C 3,9 C -5,4 C 44 % 74 % 1008 hPa 0,0 l/m 13,4 km/h (3 Bft)
07.12.2022 12:05 23,0 C 4,0 C -5,4 C 44 % 74 % 1008 hPa 0,0 l/m 7,9 km/h (2 Bft)
07.12.2022 12:08 23,0 C 4,0 C -5,3 C 44 % 74 % 1008 hPa 0,0 l/m 10,5 km/h (2 Bft)
07.12.2022 12:11 23,0 C 3,9 C -5,4 C 44 % 73 % 1008 hPa 0,0 l/m 14,1 km/h (3 Bft)
07.12.2022 12:14 23,0 C 3,9 C -5,4 C 44 % 74 % 1008 hPa 0,0 l/m 7,6 km/h (2 Bft)
07.12.2022 12:17 23,0 C 3,9 C -5,3 C 44 % 74 % 1008 hPa 0,0 l/m 10,6 km/h (2 Bft)
07.12.2022 12:20 23,0 C 3,9 C -5,3 C 44 % 75 % 1008 hPa 0,0 l/m 9,2 km/h (2 Bft)
07.12.2022 12:23 23,0 C 3,9 C -5,3 C 44 % 75 % 1008 hPa 0,0 l/m 10,4 km/h (2 Bft)
07.12.2022 12:26 23,0 C 3,9 C -5,3 C 44 % 75 % 1008 hPa 0,0 l/m 13,1 km/h (3 Bft)
07.12.2022 12:29 23,0 C 3,8 C -5,3 C 44 % 76 % 1008 hPa 0,0 l/m 14,1 km/h (3 Bft)
07.12.2022 12:32 23,0 C 3,6 C -5,3 C 44 % 76 % 1008 hPa 0,0 l/m 14,2 km/h (3 Bft)
07.12.2022 12:35 23,0 C 3,6 C -5,4 C 44 % 76 % 1008 hPa 0,0 l/m 16,0 km/h (3 Bft)
07.12.2022 12:38 23,0 C 3,5 C -5,3 C 44 % 76 % 1008 hPa 0,0 l/m 12,1 km/h (2 Bft)
07.12.2022 12:41 23,0 C 3,6 C -5,2 C 44 % 77 % 1008 hPa 0,0 l/m 18,2 km/h (3 Bft)
07.12.2022 12:44 23,1 C 3,6 C -5,2 C 44 % 77 % 1008 hPa 0,0 l/m 18,2 km/h (3 Bft)
07.12.2022 12:47 23,0 C 3,6 C -5,2 C 44 % 77 % 1008 hPa 0,0 l/m 12,0 km/h (2 Bft)
07.12.2022 12:50 23,0 C 3,6 C -5,2 C 44 % 77 % 1008 hPa 0,0 l/m 13,4 km/h (3 Bft)
07.12.2022 12:53 23,0 C 3,6 C -5,2 C 44 % 78 % 1008 hPa 0,0 l/m 8,3 km/h (2 Bft)
07.12.2022 12:56 23,0 C 3,6 C -5,2 C 44 % 78 % 1008 hPa 0,0 l/m 8,3 km/h (2 Bft)
07.12.2022 12:59 23,0 C 3,6 C -5,1 C 44 % 78 % 1008 hPa 0,0 l/m 14,5 km/h (3 Bft)
07.12.2022 13:02 23,0 C 3,7 C -5,1 C 44 % 78 % 1008 hPa 0,0 l/m 9,6 km/h (2 Bft)
07.12.2022 13:05 23,0 C 3,7 C -5,1 C 44 % 78 % 1008 hPa 0,0 l/m 17,0 km/h (3 Bft)
07.12.2022 13:08 23,0 C 3,7 C -5,1 C 44 % 78 % 1008 hPa 0,0 l/m 11,9 km/h (2 Bft)
07.12.2022 13:11 23,0 C 3,8 C -5,1 C 44 % 77 % 1008 hPa 0,0 l/m 9,4 km/h (2 Bft)
07.12.2022 13:14 23,0 C 3,8 C -5,1 C 44 % 77 % 1008 hPa 0,0 l/m 13,3 km/h (3 Bft)
07.12.2022 13:17 23,0 C 3,8 C -5,1 C 44 % 77 % 1008 hPa 0,0 l/m 11,3 km/h (2 Bft)
07.12.2022 13:20 23,0 C 3,8 C -5,1 C 44 % 77 % 1008 hPa 0,0 l/m 11,5 km/h (2 Bft)
07.12.2022 13:23 23,0 C 3,8 C -5,1 C 44 % 77 % 1008 hPa 0,0 l/m 11,3 km/h (2 Bft)
07.12.2022 13:26 23,0 C 3,9 C -5,1 C 44 % 77 % 1008 hPa 0,0 l/m 11,2 km/h (2 Bft)
07.12.2022 13:29 23,0 C 3,9 C -5,1 C 44 % 77 % 1008 hPa 0,0 l/m 10,7 km/h (2 Bft)
07.12.2022 13:32 23,0 C 3,9 C -5,0 C 44 % 77 % 1008 hPa 0,0 l/m 11,5 km/h (2 Bft)
07.12.2022 13:35 23,0 C 3,9 C -5,0 C 44 % 77 % 1008 hPa 0,0 l/m 11,5 km/h (2 Bft)
07.12.2022 13:38 23,0 C 3,9 C -5,1 C 44 % 77 % 1008 hPa 0,0 l/m 17,2 km/h (3 Bft)
07.12.2022 13:41 23,0 C 3,8 C -5,1 C 44 % 76 % 1008 hPa 0,0 l/m 15,3 km/h (3 Bft)
07.12.2022 13:44 23,0 C 3,8 C -5,1 C 44 % 77 % 1008 hPa 0,0 l/m 8,3 km/h (2 Bft)
07.12.2022 13:47 23,0 C 3,8 C -5,1 C 44 % 76 % 1008 hPa 0,0 l/m 8,3 km/h (2 Bft)
07.12.2022 13:50 23,0 C 3,7 C -5,1 C 44 % 76 % 1008 hPa 0,0 l/m 11,8 km/h (2 Bft)
07.12.2022 13:53 23,0 C 3,7 C -5,1 C 44 % 76 % 1008 hPa 0,0 l/m 11,0 km/h (2 Bft)
07.12.2022 13:56 23,0 C 3,7 C -5,1 C 44 % 76 % 1008 hPa 0,0 l/m 9,5 km/h (2 Bft)
07.12.2022 13:59 23,0 C 3,8 C -5,1 C 44 % 76 % 1008 hPa 0,0 l/m 15,5 km/h (3 Bft)
07.12.2022 14:02 23,0 C 3,7 C -5,1 C 44 % 76 % 1008 hPa 0,0 l/m 10,3 km/h (2 Bft)
07.12.2022 14:05 23,0 C 3,7 C -5,1 C 44 % 76 % 1008 hPa 0,0 l/m 15,9 km/h (3 Bft)
07.12.2022 14:08 23,0 C 3,7 C -5,1 C 44 % 76 % 1008 hPa 0,0 l/m 15,4 km/h (3 Bft)
07.12.2022 14:11 23,0 C 3,7 C -5,1 C 44 % 76 % 1008 hPa 0,0 l/m 13,3 km/h (3 Bft)
07.12.2022 14:14 23,0 C 3,6 C -5,1 C 44 % 76 % 1008 hPa 0,0 l/m 12,7 km/h (3 Bft)
07.12.2022 14:17 23,0 C 3,7 C -5,1 C 44 % 76 % 1008 hPa 0,0 l/m 12,8 km/h (3 Bft)
07.12.2022 14:20 23,0 C 3,7 C -5,1 C 44 % 76 % 1008 hPa 0,0 l/m 10,6 km/h (2 Bft)
07.12.2022 14:23 23,0 C 3,7 C -5,1 C 44 % 75 % 1008 hPa 0,0 l/m 14,0 km/h (3 Bft)
07.12.2022 14:26 23,0 C 3,6 C -5,1 C 44 % 75 % 1008 hPa 0,0 l/m 11,0 km/h (2 Bft)
07.12.2022 14:29 23,0 C 3,6 C -5,1 C 44 % 75 % 1008 hPa 0,0 l/m 8,3 km/h (2 Bft)
07.12.2022 14:32 23,0 C 3,6 C -5,1 C 44 % 75 % 1008 hPa 0,0 l/m 9,2 km/h (2 Bft)
07.12.2022 14:35 23,0 C 3,6 C -5,1 C 44 % 76 % 1008 hPa 0,0 l/m 8,9 km/h (2 Bft)
07.12.2022 14:38 23,0 C 3,7 C -5,0 C 44 % 76 % 1008 hPa 0,0 l/m 6,9 km/h (2 Bft)
07.12.2022 14:41 23,0 C 3,7 C -5,1 C 44 % 76 % 1008 hPa 0,0 l/m 6,8 km/h (2 Bft)
07.12.2022 14:44 23,0 C 3,6 C -5,0 C 44 % 77 % 1008 hPa 0,0 l/m 8,3 km/h (2 Bft)
07.12.2022 14:47 23,0 C 3,6 C -5,1 C 44 % 77 % 1008 hPa 0,0 l/m 7,9 km/h (2 Bft)
07.12.2022 14:50 23,0 C 3,6 C -5,1 C 44 % 76 % 1008 hPa 0,0 l/m 7,9 km/h (2 Bft)
07.12.2022 14:53 23,0 C 3,6 C -5,1 C 44 % 77 % 1008 hPa 0,0 l/m 7,4 km/h (2 Bft)
07.12.2022 14:56 23,0 C 3,6 C -5,1 C 44 % 77 % 1008 hPa 0,0 l/m 3,0 km/h (1 Bft)
07.12.2022 14:59 23,0 C 3,5 C -5,1 C 44 % 77 % 1008 hPa 0,0 l/m 5,9 km/h (2 Bft)
07.12.2022 15:02 23,0 C 3,6 C -5,1 C 44 % 77 % 1008 hPa 0,0 l/m 6,3 km/h (2 Bft)
07.12.2022 15:05 22,9 C 3,5 C -5,0 C 44 % 77 % 1008 hPa 0,0 l/m 0,0 km/h (0 Bft)
07.12.2022 15:08 22,9 C 3,5 C -5,0 C 44 % 77 % 1008 hPa 0,0 l/m 0,5 km/h (0 Bft)
07.12.2022 15:11 23,0 C 3,5 C -5,0 C 44 % 77 % 1008 hPa 0,0 l/m 0,1 km/h (0 Bft)
07.12.2022 15:14 23,0 C 3,5 C -5,1 C 44 % 78 % 1008 hPa 0,0 l/m 9,8 km/h (2 Bft)
07.12.2022 15:17 22,9 C 3,5 C -5,0 C 44 % 78 % 1008 hPa 0,0 l/m 0,0 km/h (0 Bft)
07.12.2022 15:20 22,9 C 3,5 C -5,0 C 44 % 78 % 1008 hPa 0,0 l/m 4,7 km/h (1 Bft)
07.12.2022 15:23 22,9 C 3,5 C -5,0 C 44 % 78 % 1008 hPa 0,0 l/m 1,5 km/h (1 Bft)
07.12.2022 15:26 22,9 C 3,5 C -5,0 C 44 % 78 % 1008 hPa 0,0 l/m 1,5 km/h (1 Bft)
07.12.2022 15:29 23,0 C 3,5 C -5,0 C 44 % 78 % 1008 hPa 0,0 l/m 0,2 km/h (0 Bft)
07.12.2022 15:32 23,0 C 3,4 C -5,0 C 44 % 78 % 1008 hPa 0,0 l/m 0,7 km/h (0 Bft)
07.12.2022 15:35 23,0 C 3,4 C -5,0 C 44 % 78 % 1008 hPa 0,0 l/m 0,1 km/h (0 Bft)
07.12.2022 15:38 23,0 C 3,4 C -5,0 C 44 % 78 % 1008 hPa 0,0 l/m 0,1 km/h (0 Bft)
07.12.2022 15:41 23,0 C 3,4 C -5,0 C 44 % 79 % 1008 hPa 0,0 l/m 0,1 km/h (0 Bft)
07.12.2022 15:44 23,0 C 3,3 C -5,0 C 44 % 79 % 1007 hPa 0,0 l/m 0,1 km/h (0 Bft)
07.12.2022 15:47 23,0 C 3,4 C -5,0 C 44 % 79 % 1007 hPa 0,0 l/m 0,9 km/h (0 Bft)
07.12.2022 15:50 22,9 C 3,4 C -5,0 C 44 % 79 % 1007 hPa 0,0 l/m 0,3 km/h (0 Bft)
07.12.2022 15:53 22,9 C 3,4 C -5,0 C 44 % 79 % 1007 hPa 0,0 l/m 4,5 km/h (1 Bft)
07.12.2022 15:56 22,9 C 3,3 C -5,0 C 44 % 79 % 1007 hPa 0,0 l/m 0,1 km/h (0 Bft)
07.12.2022 15:59 22,9 C 3,3 C -5,0 C 44 % 79 % 1007 hPa 0,0 l/m 0,3 km/h (0 Bft)
07.12.2022 16:02 22,9 C 3,3 C -5,0 C 44 % 79 % 1007 hPa 0,0 l/m 3,7 km/h (1 Bft)
07.12.2022 16:05 23,0 C 3,3 C -5,0 C 44 % 79 % 1007 hPa 0,0 l/m 5,8 km/h (2 Bft)
07.12.2022 16:08 23,0 C 3,2 C -5,0 C 44 % 79 % 1007 hPa 0,0 l/m 3,1 km/h (1 Bft)
07.12.2022 16:11 23,0 C 3,2 C -5,0 C 44 % 79 % 1007 hPa 0,0 l/m 3,7 km/h (1 Bft)
07.12.2022 16:14 23,0 C 3,1 C -5,0 C 44 % 80 % 1007 hPa 0,0 l/m 1,6 km/h (1 Bft)
07.12.2022 16:17 23,0 C 3,1 C -5,1 C 44 % 80 % 1007 hPa 0,0 l/m 1,9 km/h (1 Bft)
07.12.2022 16:20 23,0 C 3,1 C -5,1 C 44 % 80 % 1007 hPa 0,0 l/m 0,3 km/h (0 Bft)
07.12.2022 16:23 23,0 C 3,1 C -5,0 C 44 % 80 % 1007 hPa 0,0 l/m 0,8 km/h (0 Bft)
07.12.2022 16:26 23,0 C 3,1 C -5,0 C 44 % 80 % 1007 hPa 0,0 l/m 0,0 km/h (0 Bft)
07.12.2022 16:29 23,0 C 3,1 C -5,0 C 44 % 80 % 1007 hPa 0,0 l/m 0,0 km/h (0 Bft)
07.12.2022 16:32 23,0 C 3,1 C -5,0 C 44 % 80 % 1007 hPa 0,0 l/m 0,0 km/h (0 Bft)
07.12.2022 16:35 22,9 C 3,1 C -5,0 C 44 % 80 % 1007 hPa 0,0 l/m 0,0 km/h (0 Bft)
07.12.2022 16:38 22,9 C 3,1 C -5,0 C 44 % 80 % 1007 hPa 0,0 l/m 0,0 km/h (0 Bft)
07.12.2022 16:41 23,0 C 3,1 C -5,0 C 44 % 80 % 1007 hPa 0,0 l/m 0,0 km/h (0 Bft)
07.12.2022 16:44 23,0 C 3,0 C -5,0 C 44 % 80 % 1007 hPa 0,0 l/m 0,0 km/h (0 Bft)
07.12.2022 16:47 23,0 C 3,0 C -5,0 C 44 % 80 % 1007 hPa 0,0 l/m 0,0 km/h (0 Bft)
07.12.2022 16:50 23,0 C 3,0 C -4,9 C 44 % 80 % 1007 hPa 0,0 l/m 0,0 km/h (0 Bft)
07.12.2022 16:53 23,0 C 2,9 C -4,9 C 44 % 80 % 1007 hPa 0,0 l/m 0,0 km/h (0 Bft)
07.12.2022 16:56 23,1 C 2,9 C -5,0 C 45 % 80 % 1007 hPa 0,0 l/m 0,0 km/h (0 Bft)
07.12.2022 16:59 23,0 C 2,9 C -5,0 C 45 % 80 % 1007 hPa 0,0 l/m 0,0 km/h (0 Bft)
07.12.2022 17:02 23,1 C 2,9 C -5,0 C 45 % 80 % 1007 hPa 0,0 l/m 0,0 km/h (0 Bft)
07.12.2022 17:05 23,1 C 2,8 C -4,8 C 45 % 81 % 1007 hPa 0,0 l/m 0,0 km/h (0 Bft)
07.12.2022 17:08 23,1 C 2,8 C -4,9 C 45 % 81 % 1007 hPa 0,0 l/m 0,0 km/h (0 Bft)
07.12.2022 17:11 23,1 C 2,8 C -4,9 C 45 % 81 % 1007 hPa 0,0 l/m 0,0 km/h (0 Bft)
07.12.2022 17:14 23,1 C 2,8 C -4,9 C 45 % 81 % 1007 hPa 0,0 l/m 0,0 km/h (0 Bft)
07.12.2022 17:17 23,1 C 2,8 C -4,9 C 45 % 81 % 1007 hPa 0,0 l/m 0,0 km/h (0 Bft)
07.12.2022 17:20 23,1 C 2,8 C -4,8 C 45 % 81 % 1007 hPa 0,0 l/m 0,0 km/h (0 Bft)
07.12.2022 17:23 23,1 C 2,8 C -4,8 C 45 % 81 % 1007 hPa 0,0 l/m 0,0 km/h (0 Bft)
07.12.2022 17:26 23,1 C 2,7 C -4,9 C 45 % 81 % 1007 hPa 0,0 l/m 0,0 km/h (0 Bft)
07.12.2022 17:29 23,1 C 2,7 C -4,9 C 45 % 81 % 1007 hPa 0,0 l/m 0,0 km/h (0 Bft)
07.12.2022 17:32 23,1 C 2,7 C -4,8 C 45 % 81 % 1007 hPa 0,0 l/m 0,0 km/h (0 Bft)
07.12.2022 17:35 23,1 C 2,7 C -4,8 C 45 % 81 % 1007 hPa 0,0 l/m 0,0 km/h (0 Bft)
07.12.2022 17:38 23,1 C 2,7 C -4,8 C 45 % 81 % 1007 hPa 0,0 l/m 0,0 km/h (0 Bft)
07.12.2022 17:41 23,1 C 2,6 C -4,8 C 45 % 81 % 1007 hPa 0,0 l/m 0,0 km/h (0 Bft)
07.12.2022 17:44 23,1 C 2,6 C -4,8 C 45 % 81 % 1007 hPa 0,0 l/m 0,0 km/h (0 Bft)
07.12.2022 17:47 23,1 C 2,5 C -4,8 C 45 % 82 % 1007 hPa 0,0 l/m 0,0 km/h (0 Bft)
07.12.2022 17:50 23,0 C 2,6 C -4,8 C 45 % 82 % 1007 hPa 0,0 l/m 0,0 km/h (0 Bft)
07.12.2022 17:53 23,1 C 2,5 C -4,8 C 45 % 82 % 1007 hPa 0,0 l/m 0,0 km/h (0 Bft)
07.12.2022 17:56 23,0 C 2,5 C -4,8 C 45 % 82 % 1007 hPa 0,0 l/m 0,0 km/h (0 Bft)
07.12.2022 17:59 23,0 C 2,5 C -4,8 C 45 % 82 % 1007 hPa 0,0 l/m 0,0 km/h (0 Bft)
07.12.2022 18:02 23,1 C 2,5 C -4,8 C 45 % 82 % 1007 hPa 0,0 l/m 0,0 km/h (0 Bft)
07.12.2022 18:05 23,1 C 2,5 C -4,8 C 45 % 82 % 1007 hPa 0,0 l/m 0,0 km/h (0 Bft)
07.12.2022 18:08 23,0 C 2,5 C -4,8 C 45 % 82 % 1007 hPa 0,0 l/m 0,0 km/h (0 Bft)
07.12.2022 18:11 23,1 C 2,5 C -4,8 C 45 % 82 % 1007 hPa 0,0 l/m 0,0 km/h (0 Bft)
07.12.2022 18:14 23,1 C 2,5 C -4,8 C 45 % 82 % 1007 hPa 0,0 l/m 0,0 km/h (0 Bft)
07.12.2022 18:17 23,1 C 2,5 C -4,8 C 45 % 82 % 1007 hPa 0,0 l/m 0,0 km/h (0 Bft)
07.12.2022 18:20 23,1 C 2,5 C -4,8 C 45 % 82 % 1007 hPa 0,0 l/m 0,0 km/h (0 Bft)
07.12.2022 18:23 23,0 C 2,5 C -4,8 C 45 % 82 % 1007 hPa 0,0 l/m 0,0 km/h (0 Bft)
07.12.2022 18:26 23,1 C 2,4 C -4,8 C 45 % 82 % 1007 hPa 0,0 l/m 0,0 km/h (0 Bft)
07.12.2022 18:29 23,1 C 2,4 C -4,8 C 45 % 83 % 1007 hPa 0,0 l/m 0,0 km/h (0 Bft)
07.12.2022 18:32 23,0 C 2,4 C -4,9 C 45 % 83 % 1007 hPa 0,0 l/m 0,0 km/h (0 Bft)
07.12.2022 18:35 23,1 C 2,4 C -4,8 C 45 % 83 % 1007 hPa 0,0 l/m 0,0 km/h (0 Bft)
07.12.2022 18:38 23,1 C 2,4 C -4,8 C 45 % 83 % 1007 hPa 0,0 l/m 0,0 km/h (0 Bft)
07.12.2022 18:41 23,0 C 2,4 C -4,7 C 45 % 83 % 1007 hPa 0,0 l/m 0,0 km/h (0 Bft)
07.12.2022 18:44 23,0 C 2,3 C -4,8 C 45 % 83 % 1007 hPa 0,0 l/m 0,0 km/h (0 Bft)
07.12.2022 18:47 23,0 C 2,3 C -4,8 C 45 % 83 % 1007 hPa 0,0 l/m 0,0 km/h (0 Bft)
07.12.2022 18:50 23,1 C 2,3 C -4,8 C 45 % 83 % 1007 hPa 0,0 l/m 0,0 km/h (0 Bft)
07.12.2022 18:53 23,1 C 2,3 C -4,8 C 45 % 83 % 1007 hPa 0,0 l/m 0,0 km/h (0 Bft)
07.12.2022 18:56 23,0 C 2,3 C -4,7 C 45 % 83 % 1007 hPa 0,0 l/m 0,0 km/h (0 Bft)
07.12.2022 18:59 23,0 C 2,3 C -4,8 C 45 % 83 % 1007 hPa 0,0 l/m 0,0 km/h (0 Bft)
07.12.2022 19:02 23,1 C 2,3 C -4,8 C 45 % 83 % 1007 hPa 0,0 l/m 0,0 km/h (0 Bft)
07.12.2022 19:05 23,1 C 2,3 C -4,8 C 45 % 83 % 1007 hPa 0,0 l/m 0,0 km/h (0 Bft)
07.12.2022 19:08 23,1 C 2,3 C -4,9 C 45 % 83 % 1007 hPa 0,0 l/m 0,0 km/h (0 Bft)
07.12.2022 19:11 23,0 C 2,3 C -4,8 C 45 % 83 % 1007 hPa 0,0 l/m 0,0 km/h (0 Bft)
07.12.2022 19:14 23,0 C 2,3 C -4,7 C 45 % 83 % 1007 hPa 0,0 l/m 0,0 km/h (0 Bft)
07.12.2022 19:17 23,0 C 2,3 C -4,7 C 45 % 83 % 1007 hPa 0,0 l/m 0,0 km/h (0 Bft)
07.12.2022 19:20 23,0 C 2,3 C -4,7 C 45 % 83 % 1007 hPa 0,0 l/m 0,0 km/h (0 Bft)
07.12.2022 19:23 23,0 C 2,3 C -4,7 C 45 % 83 % 1007 hPa 0,0 l/m 0,0 km/h (0 Bft)
07.12.2022 19:26 23,0 C 2,3 C -4,8 C 45 % 83 % 1007 hPa 0,0 l/m 0,1 km/h (0 Bft)
07.12.2022 19:29 23,1 C 2,3 C -4,8 C 45 % 83 % 1007 hPa 0,0 l/m 0,0 km/h (0 Bft)
07.12.2022 19:32 23,1 C 2,2 C -4,8 C 45 % 83 % 1007 hPa 0,0 l/m 0,0 km/h (0 Bft)
07.12.2022 19:35 23,1 C 2,2 C -4,7 C 45 % 83 % 1007 hPa 0,0 l/m 0,0 km/h (0 Bft)
07.12.2022 19:38 23,1 C 2,2 C -4,7 C 45 % 83 % 1007 hPa 0,0 l/m 0,0 km/h (0 Bft)
07.12.2022 19:41 23,1 C 2,2 C -4,7 C 45 % 83 % 1007 hPa 0,0 l/m 0,0 km/h (0 Bft)
07.12.2022 19:44 23,1 C 2,1 C -4,8 C 45 % 83 % 1007 hPa 0,0 l/m 0,0 km/h (0 Bft)
07.12.2022 19:47 23,1 C 2,1 C -4,9 C 45 % 83 % 1007 hPa 0,0 l/m 0,0 km/h (0 Bft)
07.12.2022 19:50 23,1 C 2,1 C -4,9 C 45 % 83 % 1007 hPa 0,0 l/m 0,0 km/h (0 Bft)
07.12.2022 19:53 23,1 C 2,1 C -4,8 C 45 % 83 % 1007 hPa 0,0 l/m 0,0 km/h (0 Bft)
07.12.2022 19:56 23,0 C 2,0 C -4,8 C 45 % 84 % 1007 hPa 0,0 l/m 0,0 km/h (0 Bft)
07.12.2022 19:59 23,0 C 2,0 C -4,8 C 45 % 84 % 1007 hPa 0,0 l/m 0,0 km/h (0 Bft)
07.12.2022 20:02 23,0 C 2,0 C -4,9 C 45 % 84 % 1007 hPa 0,0 l/m 0,0 km/h (0 Bft)
07.12.2022 20:05 23,0 C 2,0 C -4,9 C 45 % 84 % 1007 hPa 0,0 l/m 0,0 km/h (0 Bft)
07.12.2022 20:08 23,0 C 2,1 C -4,8 C 45 % 84 % 1007 hPa 0,0 l/m 0,0 km/h (0 Bft)
07.12.2022 20:11 23,0 C 2,0 C -4,7 C 45 % 84 % 1007 hPa 0,0 l/m 0,0 km/h (0 Bft)
07.12.2022 20:14 23,0 C 2,0 C -4,7 C 45 % 84 % 1007 hPa 0,0 l/m 0,0 km/h (0 Bft)
07.12.2022 20:17 23,1 C 2,0 C -4,7 C 45 % 84 % 1007 hPa 0,0 l/m 0,0 km/h (0 Bft)
07.12.2022 20:20 23,1 C 1,9 C -4,7 C 45 % 84 % 1007 hPa 0,0 l/m 0,0 km/h (0 Bft)
07.12.2022 20:23 23,1 C 1,9 C -4,7 C 45 % 84 % 1007 hPa 0,0 l/m 0,0 km/h (0 Bft)
07.12.2022 20:26 23,1 C 1,9 C -4,7 C 45 % 84 % 1007 hPa 0,0 l/m 0,0 km/h (0 Bft)
07.12.2022 20:29 23,1 C 1,9 C -4,6 C 45 % 84 % 1007 hPa 0,0 l/m 0,0 km/h (0 Bft)
07.12.2022 20:32 23,1 C 1,9 C -4,6 C 45 % 84 % 1007 hPa 0,0 l/m 0,0 km/h (0 Bft)
07.12.2022 20:35 23,1 C 1,9 C -4,6 C 45 % 84 % 1007 hPa 0,0 l/m 0,0 km/h (0 Bft)
07.12.2022 20:38 23,2 C 1,9 C -4,6 C 44 % 85 % 1007 hPa 0,0 l/m 0,0 km/h (0 Bft)
07.12.2022 20:41 23,2 C 1,9 C -4,6 C 44 % 85 % 1007 hPa 0,0 l/m 0,0 km/h (0 Bft)
07.12.2022 20:44 23,2 C 1,9 C -4,6 C 44 % 85 % 1007 hPa 0,0 l/m 0,0 km/h (0 Bft)
07.12.2022 20:47 23,2 C 1,9 C -4,5 C 44 % 85 % 1007 hPa 0,0 l/m 0,0 km/h (0 Bft)
07.12.2022 20:50 23,4 C 1,9 C -4,6 C 45 % 85 % 1007 hPa 0,0 l/m 0,0 km/h (0 Bft)
07.12.2022 20:53 23,5 C 1,9 C -4,6 C 45 % 85 % 1007 hPa 0,0 l/m 0,0 km/h (0 Bft)
07.12.2022 20:56 23,5 C 1,9 C -4,8 C 45 % 85 % 1007 hPa 0,0 l/m 0,0 km/h (0 Bft)
07.12.2022 20:59 23,6 C 1,9 C -4,7 C 45 % 85 % 1007 hPa 0,0 l/m 0,0 km/h (0 Bft)
07.12.2022 21:02 23,6 C 1,9 C -4,7 C 45 % 85 % 1007 hPa 0,0 l/m 0,0 km/h (0 Bft)
07.12.2022 21:05 23,6 C 1,9 C -4,6 C 45 % 85 % 1007 hPa 0,0 l/m 0,0 km/h (0 Bft)
07.12.2022 21:08 23,7 C 1,8 C -4,7 C 45 % 85 % 1007 hPa 0,0 l/m 0,0 km/h (0 Bft)
07.12.2022 21:11 23,8 C 1,8 C -4,6 C 45 % 85 % 1007 hPa 0,0 l/m 0,0 km/h (0 Bft)
07.12.2022 21:14 23,7 C 1,8 C -4,6 C 44 % 85 % 1007 hPa 0,0 l/m 0,0 km/h (0 Bft)
07.12.2022 21:17 23,8 C 1,8 C -4,5 C 44 % 85 % 1007 hPa 0,0 l/m 0,0 km/h (0 Bft)
07.12.2022 21:20 23,8 C 1,8 C -4,6 C 44 % 85 % 1007 hPa 0,0 l/m 0,0 km/h (0 Bft)
07.12.2022 21:23 23,8 C 1,8 C -4,7 C 44 % 85 % 1007 hPa 0,0 l/m 0,0 km/h (0 Bft)
07.12.2022 21:26 23,8 C 1,7 C -4,7 C 44 % 85 % 1007 hPa 0,0 l/m 0,0 km/h (0 Bft)
07.12.2022 21:29 23,8 C 1,8 C -4,6 C 44 % 85 % 1007 hPa 0,0 l/m 0,0 km/h (0 Bft)
07.12.2022 21:32 23,8 C 1,8 C -4,8 C 44 % 85 % 1007 hPa 0,0 l/m 0,0 km/h (0 Bft)
07.12.2022 21:35 23,8 C 1,8 C -4,9 C 44 % 85 % 1007 hPa 0,0 l/m 0,0 km/h (0 Bft)
07.12.2022 21:38 23,9 C 1,8 C -4,8 C 44 % 85 % 1007 hPa 0,0 l/m 0,0 km/h (0 Bft)
07.12.2022 21:41 24,0 C 1,8 C -4,8 C 44 % 85 % 1007 hPa 0,0 l/m 0,0 km/h (0 Bft)
07.12.2022 21:44 24,0 C 1,8 C -4,8 C 43 % 85 % 1007 hPa 0,0 l/m 0,0 km/h (0 Bft)
07.12.2022 21:47 24,1 C 1,8 C -4,8 C 43 % 85 % 1007 hPa 0,0 l/m 0,0 km/h (0 Bft)
07.12.2022 21:50 24,1 C 1,8 C -4,6 C 43 % 85 % 1007 hPa 0,0 l/m 0,0 km/h (0 Bft)
07.12.2022 21:53 24,2 C 1,7 C -4,6 C 43 % 85 % 1007 hPa 0,0 l/m 0,0 km/h (0 Bft)
07.12.2022 21:56 24,2 C 1,7 C -4,6 C 43 % 85 % 1007 hPa 0,0 l/m 0,0 km/h (0 Bft)
07.12.2022 21:59 24,2 C 1,7 C -4,8 C 44 % 85 % 1007 hPa 0,0 l/m 0,0 km/h (0 Bft)
07.12.2022 22:02 24,3 C 1,7 C -4,7 C 44 % 85 % 1007 hPa 0,0 l/m 0,0 km/h (0 Bft)
07.12.2022 22:05 24,4 C 1,7 C -4,6 C 44 % 85 % 1007 hPa 0,0 l/m 0,0 km/h (0 Bft)
07.12.2022 22:08 24,3 C 1,7 C -4,8 C 44 % 85 % 1007 hPa 0,0 l/m 0,0 km/h (0 Bft)
07.12.2022 22:11 24,3 C 1,6 C -4,5 C 44 % 85 % 1007 hPa 0,0 l/m 0,0 km/h (0 Bft)
07.12.2022 22:14 24,2 C 1,6 C -4,5 C 43 % 85 % 1007 hPa 0,0 l/m 0,0 km/h (0 Bft)
07.12.2022 22:17 24,2 C 1,7 C -4,6 C 43 % 85 % 1007 hPa 0,0 l/m 0,0 km/h (0 Bft)
07.12.2022 22:20 24,1 C 1,6 C -4,6 C 43 % 85 % 1006 hPa 0,0 l/m 0,0 km/h (0 Bft)
07.12.2022 22:23 24,1 C 1,7 C -4,6 C 43 % 85 % 1006 hPa 0,0 l/m 0,0 km/h (0 Bft)
07.12.2022 22:26 24,1 C 1,7 C -4,8 C 43 % 85 % 1006 hPa 0,0 l/m 0,0 km/h (0 Bft)
07.12.2022 22:29 24,0 C 1,6 C -4,7 C 43 % 85 % 1006 hPa 0,0 l/m 0,0 km/h (0 Bft)
07.12.2022 22:32 24,0 C 1,6 C -4,8 C 43 % 85 % 1006 hPa 0,0 l/m 0,0 km/h (0 Bft)
07.12.2022 22:35 24,0 C 1,6 C -4,9 C 43 % 85 % 1006 hPa 0,0 l/m 0,0 km/h (0 Bft)
07.12.2022 22:38 24,0 C 1,6 C -4,8 C 43 % 85 % 1006 hPa 0,0 l/m 0,0 km/h (0 Bft)
07.12.2022 22:41 24,0 C 1,5 C -4,7 C 43 % 85 % 1006 hPa 0,0 l/m 0,0 km/h (0 Bft)
07.12.2022 22:44 24,0 C 1,5 C -4,8 C 43 % 85 % 1006 hPa 0,0 l/m 0,0 km/h (0 Bft)
07.12.2022 22:47 24,0 C 1,5 C -4,8 C 43 % 85 % 1006 hPa 0,0 l/m 0,0 km/h (0 Bft)
07.12.2022 22:50 24,0 C 1,5 C -4,8 C 43 % 86 % 1006 hPa 0,0 l/m 0,0 km/h (0 Bft)
07.12.2022 22:53 24,0 C 1,5 C -4,7 C 43 % 86 % 1006 hPa 0,0 l/m 0,0 km/h (0 Bft)
07.12.2022 22:56 24,0 C 1,5 C -4,6 C 43 % 86 % 1006 hPa 0,0 l/m 0,0 km/h (0 Bft)
07.12.2022 22:59 24,0 C 1,5 C -4,6 C 43 % 86 % 1006 hPa 0,0 l/m 0,0 km/h (0 Bft)
07.12.2022 23:02 24,0 C 1,5 C -4,6 C 43 % 86 % 1006 hPa 0,0 l/m 0,0 km/h (0 Bft)
07.12.2022 23:05 24,0 C 1,5 C -4,6 C 43 % 86 % 1006 hPa 0,0 l/m 0,0 km/h (0 Bft)
07.12.2022 23:08 24,0 C 1,5 C -4,8 C 43 % 86 % 1006 hPa 0,0 l/m 0,0 km/h (0 Bft)
07.12.2022 23:11 24,0 C 1,5 C -4,7 C 43 % 86 % 1006 hPa 0,0 l/m 0,0 km/h (0 Bft)
07.12.2022 23:14 24,0 C 1,5 C -4,6 C 43 % 86 % 1006 hPa 0,0 l/m 0,0 km/h (0 Bft)
07.12.2022 23:17 24,0 C 1,5 C -4,5 C 43 % 86 % 1006 hPa 0,0 l/m 0,0 km/h (0 Bft)
07.12.2022 23:20 23,9 C 1,5 C -4,6 C 43 % 86 % 1006 hPa 0,0 l/m 0,0 km/h (0 Bft)
07.12.2022 23:23 23,9 C 1,5 C -4,6 C 43 % 86 % 1006 hPa 0,0 l/m 0,0 km/h (0 Bft)
07.12.2022 23:26 23,9 C 1,4 C -4,5 C 43 % 86 % 1006 hPa 0,0 l/m 0,0 km/h (0 Bft)
07.12.2022 23:29 23,9 C 1,4 C -4,6 C 43 % 86 % 1006 hPa 0,0 l/m 0,0 km/h (0 Bft)
07.12.2022 23:32 23,9 C 1,4 C -4,5 C 43 % 86 % 1006 hPa 0,0 l/m 0,0 km/h (0 Bft)
07.12.2022 23:35 23,9 C 1,4 C -4,5 C 43 % 86 % 1006 hPa 0,0 l/m 0,0 km/h (0 Bft)
07.12.2022 23:38 23,8 C 1,3 C -4,5 C 43 % 86 % 1006 hPa 0,0 l/m 0,0 km/h (0 Bft)
07.12.2022 23:41 23,8 C 1,3 C -4,8 C 43 % 86 % 1006 hPa 0,0 l/m 0,0 km/h (0 Bft)
07.12.2022 23:44 23,8 C 1,3 C -4,8 C 43 % 86 % 1006 hPa 0,0 l/m 0,0 km/h (0 Bft)
07.12.2022 23:47 23,8 C 1,3 C -4,6 C 43 % 86 % 1006 hPa 0,0 l/m 0,0 km/h (0 Bft)
07.12.2022 23:50 23,8 C 1,3 C -4,6 C 43 % 86 % 1006 hPa 0,0 l/m 0,0 km/h (0 Bft)
07.12.2022 23:53 23,8 C 1,3 C -4,7 C 43 % 86 % 1006 hPa 0,0 l/m 0,0 km/h (0 Bft)
07.12.2022 23:56 23,8 C 1,3 C -4,5 C 43 % 86 % 1006 hPa 0,0 l/m 0,0 km/h (0 Bft)
07.12.2022 23:59 23,8 C 1,2 C -4,5 C 43 % 86 % 1006 hPa 0,0 l/m 0,0 km/h (0 Bft)
_ Min-Zeit 07:59 23:59 11:41 08:41 12:11 22:20 - 15:05
Minimum _ 22,8 C 1,2 C -5,6 C 43 % 73 % 1006 hPa - 0,0 km/h (0 Bft)
_ Max-Zeit 22:05 11:26 20:47 16:56 00:26 00:29 00:26 12:41
Maximum _ 24,4 C 4,5 C -4,5 C 45 % 86 % 1009 hPa 0,0 l/m 18,2 km/h
W-SW (3 Bft)
Durchschnitt _ 23,1 C 2,6 C -5,0 C 44 % 83 % 1008 hPa #0,0 l/m 5,1 km/h (1 Bft)